CW0730 Weather Reports


time (UTC)temp
F
wind
direction
speed
knots
gust
knots
rain 1hr
in
rain 24hr
in
rain mn
in
humidity
%
barometer
mb
20260508090036 42 250 3.5 7.0 0.00 0.00 0.00 71 1002.9
20260508084523 43 295 1.7 5.2 0.00 0.00 0.00 72 1002.8
20260508083021 43 279 2.6 7.0 0.00 0.00 0.00 71 1002.7
20260508081520 44 223 2.6 9.6 0.00 0.00 0.00 70 1002.7
20260508080033 44 225 3.5 8.7 0.00 0.00 0.00 70 1002.7
20260508074527 44 255 3.5 7.8 0.00 0.00 0.00 69 1002.5
20260508073016 44 266 5.2 9.6 0.00 0.00 0.00 66 1002.4
20260508071523 44 309 3.5 10.4 0.00 0.00 0.00 67 1002.3
20260508070015 44 205 3.5 8.7 0.00 0.00 0.00 66 1002.5
20260508064518 44 311 3.5 8.7 0.00 0.03 0.00 66 1002.5
20260508063013 44 252 4.3 9.6 0.00 0.03 0.00 66 1002.7
20260508061510 44 226 3.5 8.7 0.00 0.03 0.00 66 1002.8
20260508060007 45 258 3.5 7.8 0.00 0.03 0.00 67 1002.8
20260508054508 45 288 3.5 12.2 0.00 0.27 0.00 64 1002.9
20260508053004 45 253 4.3 9.6 0.00 0.27 0.00 65 1003.0
20260508051503 45 266 2.6 9.6 0.00 0.27 0.00 65 1003.1
20260508050059 45 293 3.5 9.6 0.00 0.27 0.00 62 1003.2
20260508044605 46 259 4.3 13.0 0.00 0.28 0.00 60 1003.2
20260508043107 45 283 2.6 7.0 0.00 0.28 0.00 64 1003.3
20260508041552 46 295 2.6 8.7 0.00 0.28 0.00 59 1003.4
20260508040051 46 295 2.6 7.8 0.00 0.28 0.00 59 1003.4
20260508034548 47 265 4.3 7.8 0.00 0.28 0.28 61 1003.5
20260508033048 47 246 3.5 8.7 0.00 0.28 0.28 59 1003.6
20260508031546 47 264 2.6 7.0 0.00 0.28 0.28 60 1003.7
20260508030049 48 300 3.5 7.8 0.00 0.28 0.28 60 1003.5
20260508024546 47 288 1.7 7.8 0.00 0.28 0.28 63 1003.4
20260508023046 47 293 1.7 5.2 0.00 0.28 0.28 60 1003.4
20260508021549 48 317 2.6 5.2 0.00 0.28 0.28 57 1003.3
20260508020046 49 333 3.5 7.0 0.00 0.28 0.28 55 1003.4
20260508014545 49 323 3.5 8.7 0.00 0.42 0.28 54 1003.4
20260508013045 50 339 3.5 8.7 0.00 0.42 0.28 55 1003.5
20260508011544 50 310 6.1 13.9 0.00 0.42 0.28 53 1003.4
20260508010046 51 344 7.8 13.9 0.00 0.42 0.28 53 1003.1
20260508004546 52 324 5.2 13.0 0.00 0.55 0.28 53 1003.0
20260508003043 53 315 4.3 12.2 0.00 0.55 0.28 53 1002.6
20260508001541 53 338 5.2 11.3 0.00 0.55 0.28 59 1002.4
20260508000041 54 292 2.6 11.3 0.00 0.55 0.28 60 1002.0
20260507234543 55 282 5.2 14.8 0.00 0.71 0.28 56 1001.7
20260507233040 55 300 7.0 13.9 0.00 0.71 0.28 58 1001.3
20260507231543 54 278 1.7 8.7 0.00 0.71 0.28 67 1001.1
20260507230037 53 193 1.7 4.3 0.00 0.71 0.28 78 1000.8
20260507224538 53 193 1.7 4.3 0.00 0.79 0.28 76 1000.6
20260507223036 53 163 1.7 6.1 0.00 0.79 0.28 76 1000.3
20260507221536 52 185 2.6 8.7 0.00 0.79 0.28 79 1000.3
20260507220036 50 202 6.1 9.6 0.00 0.79 0.28 83 1000.3
20260507214548 49 197 8.7 13.0 0.00 0.84 0.28 84 1000.3
20260507213036 48 189 13.9 17.4 0.00 0.84 0.28 86 1000.4
20260507211535 49 189 10.4 15.6 0.00 0.84 0.28 82 1000.4
20260507210048 51 176 7.8 13.0 0.00 0.84 0.28 79 1000.3
20260507204535 52 190 7.8 13.9 0.00 0.86 0.28 77 1000.1
20260507203042 52 190 8.7 13.9 0.00 0.86 0.28 76 1000.0
20260507201540 53 150 8.7 13.9 0.00 0.86 0.28 78 1000.0
20260507200036 54 166 7.8 14.8 0.00 0.86 0.28 76 1000.1
20260507194555 54 155 9.6 16.5 0.00 0.86 0.28 77 1000.2
20260507193034 55 179 13.0 19.1 0.00 0.86 0.28 72 1000.1
20260507191533 57 168 7.0 12.2 0.00 0.86 0.28 73 1000.4
20260507190033 56 185 7.0 13.0 0.00 0.86 0.28 73 1000.4
20260507184531 55 149 8.7 13.0 0.00 0.86 0.28 76 1000.6
20260507183035 54 184 8.7 16.5 0.00 0.86 0.28 79 1000.7
20260507181529 55 169 8.7 17.4 0.00 0.86 0.28 80 1000.8
20260507180031 53 188 12.2 17.4 0.00 0.86 0.28 81 1000.9
20260507174536 51 188 12.2 18.2 0.00 0.86 0.28 85 1001.1
20260507173035 51 160 11.3 16.5 0.00 0.86 0.28 87 1001.1
20260507171527 52 209 7.8 13.0 0.00 0.86 0.28 86 1001.1
20260507170028 53 179 7.8 14.8 0.00 0.86 0.28 83 1001.2
20260507164527 53 179 9.6 13.9 0.00 0.86 0.28 80 1001.3
20260507163025 52 193 8.7 12.2 0.00 0.86 0.28 80 1001.4
20260507161526 54 184 6.1 10.4 0.00 0.86 0.28 79 1001.5
20260507160026 55 192 7.8 10.4 0.00 0.86 0.28 74 1001.6
20260507154529 56 271 0.9 5.2 0.00 0.86 0.28 68 1001.7
20260507153030 56 333 2.6 4.3 0.00 0.86 0.28 66 1001.8
20260507151514 56 274 0.9 4.3 0.00 0.86 0.28 70 1001.9
20260507150011 55 213 1.7 5.2 0.00 0.86 0.28 69 1001.9
20260507144507 56 210 0.9 4.3 0.00 0.86 0.28 73 1002.0
20260507143004 53 307 2.6 6.1 0.00 0.86 0.28 74 1002.3
20260507141559 53 270 2.6 6.1 0.00 0.86 0.28 75 1002.4
20260507140055 52 328 4.3 7.0 0.00 0.86 0.28 75 1002.5
20260507134555 52 291 2.6 5.2 0.00 0.86 0.28 75 1002.5
20260507133048 51 293 2.6 7.8 0.00 0.86 0.28 77 1002.8
20260507131603 51 333 3.5 8.7 0.00 0.86 0.28 80 1002.8
20260507130041 50 317 4.3 8.7 0.00 0.86 0.28 84 1002.6
20260507124535 49 293 3.5 7.0 0.00 0.86 0.28 86 1002.8
20260507123032 49 290 4.3 7.8 0.00 0.86 0.28 87 1002.5
20260507121529 48 312 3.5 7.0 0.00 0.86 0.28 90 1002.6
20260507120025 48 285 2.6 5.2 0.00 0.86 0.28 92 1002.8
20260507114523 47 264 2.6 5.2 0.00 0.86 0.28 96 1003.3
20260507113020 46 277 1.7 5.2 0.00 0.86 0.28 96 1003.2
20260507111518 46 287 0.9 5.2 0.00 0.86 0.28 96 1003.3
20260507110016 46 313 2.6 6.1 0.00 0.86 0.28 97 1003.2
20260507104515 46 276 2.6 5.2 0.00 0.86 0.28 98 1003.1
20260507103025 46 297 1.7 5.2 0.00 0.86 0.28 99 1002.5
20260507101512 46 293 1.7 5.2 0.00 0.86 0.28 99 1002.6
20260507100010 46 306 1.7 3.5 0.00 0.86 0.28 99 1002.1
20260507094511 46 282 2.6 5.2 0.00 0.86 0.28 99 1002.3
20260507093008 46 305 2.6 5.2 0.00 0.86 0.28 100 1002.1
20260507091506 46 294 0.0 5.2 0.00 0.86 0.28 100 1002.6